Location: The Saddle
(36.8333°N, 80.3417°W)
Time: 13:02:10
(UTC-05:00)

A-11 Canister half - Pass Details

Date: 13 December 2023
Orbit: 1512 x 1687 km, 47.2° (Epoch: 28 February)

Event Time Altitude Azimuth Distance (km) Brightness Sun altitude
Rises 01:51:50 0° 290° (WNW) 4,751 - -65.1°
Reaches altitude 10° 01:55:04 10° 296° (WNW) 3,791 - -64.5°
Maximum altitude 02:04:21 48° 9° (N) 2,043 - -62.9°
Exits shadow 02:12:11 16° 77° (ENE) 3,422 11.0 -61.4°
Drops below altitude 10° 02:13:57 10° 82° (E) 3,916 11.4 -61.1°
Sets 02:17:20 0° 88° (E) 4,918 12.1 -60.4°
